Terminal Aerodrome Forecast
Issued by NWS Pittsburgh, PA

Current Version | Previous Version | Graphics & Text | Print | Product List | Glossary On
Versions: 1 2 3 4 5 6 7 8 9 10 11 12 13 14 15 16 17 18 19 20 21 22 23 24 25 26 27 28 29
000
FTUS41 KPBZ 211900 AAB
TAFPIT
TAF AMD
KPIT 211907Z 2119/2224 25010G20KT P6SM SCT035
     FM212200 28015G25KT P6SM BKN040
     FM220500 32010KT P6SM BKN025
     FM221800 31008G14KT P6SM BKN035=

USA.gov is the U.S. government's official web portal to all federal, state and local government web resources and services.